Location: Campillo
(40.8621°N, 4.2488°W)
Time: 00:40:07
(UTC+00:00)

Cosmos 2154 Rocket - Pass Details

Date: 04 October 2021
Orbit: 965 x 997 km, 82.9° (Epoch: 21 October)

Event Time Altitude Azimuth Distance (km) Brightness Sun altitude
Rises 19:38:56 0° 227° (SW) 3,705 7.5 -20.6°
Reaches altitude 10° 19:42:07 10° 242° (WSW) 2,759 7.0 -21.2°
Maximum altitude 19:46:50 22° 290° (WNW) 2,044 6.5 -22.1°
Drops below altitude 10° 19:51:34 10° 339° (NNW) 2,762 6.8 -22.9°
Sets 19:54:46 0° 355° (N) 3,711 7.3 -23.5°
